Weather History for Milas, Turkey

Change the Weather History Date:

Tuesday, August 20, 2013

  Actual Average (LGKO) Record (LGKO)
Temperature  
Mean Temperature 80 °F -  
Max Temperature 96 °F 86 °F 100 °F (2006)
Min Temperature 64 °F 72 °F 69 °F (1996)
Cooling Degree Days 15    
Growing Degree Days 30 (Base 50)    
Moisture  
Dew Point 60 °F    
Average Humidity 51    
Maximum Humidity 83    
Minimum Humidity 18    
Precipitation  
Precipitation 0.00 in - - ()
Sea Level Pressure  
Sea Level Pressure 29.75 in    
Wind  
Wind Speed 6 mph ()    
Max Wind Speed 22 mph    
Max Gust Speed -    
Visibility 6.2 miles    
Events      
Averages and records for this station are not official NWS values.
T = Trace of Precipitation, MM = Missing Value Source: Averaged Metar Reports

Daily Weather History Graph

Daily Weather History Graph

Search for Another Location

Airport:

Trip Planner

Search our weather history database for the weather conditions in past years. The results will help you decide how hot, cold, wet, or windy it might be!

Date:

Astronomy

Aug. 20, 2013 Rise Set
Actual Time 6:29 AM EEST 7:54 PM EEST
Civil Twilight 6:02 AM EEST 8:22 PM EEST
Nautical Twilight 5:29 AM EEST 8:54 PM EEST
Astronomical Twilight 4:55 AM EEST 9:29 PM EEST
Moon 7:14 PM EEST (8/20) 5:36 AM EEST (8/20)
Length of Visible Light 14h 19m
Length of Day
13h 25m
Waxing Gibbous, 99% of the Moon is Illuminated
Aug 20
Waxing Gibbous
Aug 21
Full
Aug 28
Last Quarter
Sep 5
New
Sep 12
First Quarter

Hourly Weather History & Observations

Time (EEST) Temp. Heat Index Dew Point Humidity Pressure Visibility Wind Dir Wind Speed Gust Speed Precip Events Conditions
12:20 AM 77.0 °F - 64.4 °F 65% 29.77 in - Variable 2.3 mph - N/A   Clear
12:50 AM 73.4 °F - 64.4 °F 73% 29.77 in - SSE 2.3 mph - N/A   Clear
1:20 AM 75.2 °F - 64.4 °F 69% 29.77 in - SSE 3.5 mph - N/A   Clear
1:50 AM 71.6 °F - 62.6 °F 73% 29.77 in - Variable 1.2 mph - N/A   Clear
2:20 AM 71.6 °F - 64.4 °F 78% 29.77 in - Calm Calm - N/A   Clear
2:50 AM 71.6 °F - 64.4 °F 78% 29.77 in - Variable 1.2 mph - N/A   Clear
3:20 AM 69.8 °F - 64.4 °F 83% 29.77 in - Calm Calm - N/A   Clear
3:50 AM 69.8 °F - 62.6 °F 78% 29.77 in - Calm Calm - N/A   Clear
4:20 AM 68.0 °F - 62.6 °F 83% 29.74 in - SSE 2.3 mph - N/A   Clear
4:50 AM 69.8 °F - 62.6 °F 78% 29.74 in - SSE 3.5 mph - N/A   Clear
5:20 AM 66.2 °F - 60.8 °F 83% 29.74 in - SE 4.6 mph - N/A   Clear
5:50 AM 68.0 °F - 60.8 °F 78% 29.74 in - SSE 3.5 mph - N/A   Clear
6:20 AM 64.4 °F - 59.0 °F 83% 29.77 in - Variable 2.3 mph - N/A   Clear
6:50 AM 68.0 °F - 59.0 °F 73% 29.77 in - Variable 1.2 mph - N/A   Clear
7:20 AM 68.0 °F - 60.8 °F 78% 29.77 in - Variable 2.3 mph - N/A   Clear
7:50 AM 73.4 °F - 60.8 °F 65% 29.77 in - Variable 2.3 mph - N/A   Clear
8:20 AM 77.0 °F - 57.2 °F 50% 29.77 in - Variable 2.3 mph - N/A   Clear
8:50 AM 80.6 °F 81.1 °F 59.0 °F 48% 29.77 in - East 3.5 mph - N/A   Clear
9:20 AM 86.0 °F 84.9 °F 57.2 °F 37% 29.77 in - Variable 1.2 mph - N/A   Clear
9:50 AM 89.6 °F 87.3 °F 53.6 °F 29% 29.77 in - South 3.5 mph - N/A   Clear
10:20 AM 95.0 °F - 48.2 °F 20% 29.77 in - SW 3.5 mph - N/A   Clear
10:50 AM 96.8 °F - 46.4 °F 18% 29.77 in - Variable 3.5 mph - N/A   Clear
11:20 AM 96.8 °F - 51.8 °F 22% 29.77 in - WNW 6.9 mph - N/A   Clear
11:50 AM 96.8 °F 94.4 °F 53.6 °F 23% 29.77 in 6.2 mi WNW 10.4 mph - N/A   Partly Cloudy
12:20 PM 96.8 °F 94.4 °F 53.6 °F 23% 29.74 in 6.2 mi West 15.0 mph - N/A   Partly Cloudy
12:50 PM 96.8 °F 95.8 °F 57.2 °F 27% 29.74 in 6.2 mi West 17.3 mph - N/A   Partly Cloudy
1:20 PM 95.0 °F 93.7 °F 57.2 °F 28% 29.74 in 6.2 mi West 18.4 mph - N/A   Partly Cloudy
1:50 PM 95.0 °F 93.0 °F 55.4 °F 26% 29.74 in 6.2 mi West 19.6 mph - N/A   Partly Cloudy
2:20 PM 96.8 °F 95.1 °F 55.4 °F 25% 29.74 in 6.2 mi West 19.6 mph - N/A   Partly Cloudy
2:50 PM 96.8 °F 95.1 °F 55.4 °F 25% 29.74 in 6.2 mi West 19.6 mph - N/A   Partly Cloudy
3:20 PM 96.8 °F - 51.8 °F 22% 29.74 in 6.2 mi West 20.7 mph - N/A   Partly Cloudy
3:50 PM 96.8 °F - 51.8 °F 22% 29.71 in 6.2 mi West 20.7 mph - N/A   Partly Cloudy
4:20 PM 95.0 °F 93.0 °F 55.4 °F 26% 29.71 in 6.2 mi West 21.9 mph - N/A   Partly Cloudy
4:50 PM 93.2 °F 92.6 °F 59.0 °F 32% 29.71 in 6.2 mi WSW 20.7 mph - N/A   Partly Cloudy
5:20 PM 93.2 °F 92.6 °F 59.0 °F 32% 29.71 in 6.2 mi WSW 18.4 mph - N/A   Partly Cloudy
5:50 PM 93.2 °F 92.6 °F 59.0 °F 32% 29.71 in 6.2 mi WSW 18.4 mph - N/A   Partly Cloudy
6:20 PM 91.4 °F 91.4 °F 60.8 °F 36% 29.71 in - WSW 18.4 mph - N/A   Clear
6:50 PM 91.4 °F 91.4 °F 60.8 °F 36% 29.71 in - WSW 15.0 mph - N/A   Clear
7:20 PM 89.6 °F 89.5 °F 60.8 °F 38% 29.71 in - WSW 9.2 mph - N/A   Clear
7:50 PM 86.0 °F 88.2 °F 66.2 °F 51% 29.74 in - SSE 4.6 mph - N/A   Clear
8:20 PM 84.2 °F 86.6 °F 66.2 °F 55% 29.74 in - South 6.9 mph - N/A   Clear
8:50 PM 82.4 °F 85.4 °F 68.0 °F 62% 29.74 in - South 9.2 mph - N/A   Clear
9:20 PM 82.4 °F 84.6 °F 66.2 °F 58% 29.74 in - SW 5.8 mph - N/A   Clear
9:50 PM 80.6 °F 82.7 °F 66.2 °F 61% 29.77 in - South 4.6 mph - N/A   Clear
10:20 PM 78.8 °F - 66.2 °F 65% 29.77 in - West 3.5 mph - N/A   Clear
10:50 PM 77.0 °F - 66.2 °F 69% 29.77 in - Calm Calm - N/A   Clear
11:20 PM 75.2 °F - 64.4 °F 69% 29.77 in - SE 3.5 mph - N/A   Clear
11:50 PM 75.2 °F - 64.4 °F 69% 29.77 in - Variable 2.3 mph - N/A   Clear